Location: Chmeln�
(49.6483°N, 14.9871°E)
Time: 05:22:40
(UTC+00:00)

NOSS 2-2 (D) - Pass Details

Date: 18 September 2020
Orbit: 469 x 1739 km, 63.3° (Epoch: 23 October)

Event Time Altitude Azimuth Distance (km) Brightness Sun altitude
Rises 19:21:35 0° 236° (SW) 2,501 7.0 -21.7°
Reaches altitude 10° 19:23:38 10° 242° (WSW) 1,644 6.1 -22.0°
Maximum altitude 19:27:06 51° 319° (NW) 651 4.0 -22.4°
Drops below altitude 10° 19:31:08 10° 37° (NE) 1,919 6.0 -23.0°
Enters shadow 19:32:21 - 40° (NE) 2,421 6.5 -23.2°
